TimeEST,TemperatureF,Dew PointF,Humidity,Sea Level PressureIn,VisibilityMPH,Wind Direction,Wind SpeedMPH,Gust SpeedMPH,PrecipitationIn,Events,Conditions,WindDirDegrees,DateUTC
12:54 AM,28.0,18.0,66,29.59,10.0,West,12.7,24.2,N/A,,Overcast,270,2014-01-26 05:54:00
1:54 AM,25.0,9.0,51,29.64,9.0,WNW,17.3,27.6,N/A,,Scattered Clouds,290,2014-01-26 06:54:00
2:54 AM,23.0,6.1,48,29.71,10.0,WNW,12.7,23.0,N/A,,Clear,290,2014-01-26 07:54:00
3:54 AM,21.9,5.0,48,29.74,10.0,WNW,10.4,17.3,N/A,,Clear,290,2014-01-26 08:54:00
4:54 AM,19.9,1.9,46,29.78,10.0,WNW,9.2,-,N/A,,Clear,300,2014-01-26 09:54:00
5:54 AM,19.0,-0.0,43,29.82,10.0,WNW,11.5,-,N/A,,Clear,290,2014-01-26 10:54:00
6:54 AM,17.1,-0.9,45,29.89,10.0,West,4.6,-,N/A,,Scattered Clouds,280,2014-01-26 11:54:00
7:54 AM,17.1,1.0,50,29.93,10.0,WSW,4.6,-,N/A,,Overcast,240,2014-01-26 12:54:00
8:54 AM,18.0,3.0,52,29.93,10.0,West,6.9,-,N/A,,Clear,280,2014-01-26 13:54:00
9:54 AM,19.9,-0.0,42,29.95,10.0,West,11.5,21.9,N/A,,Clear,270,2014-01-26 14:54:00
10:54 AM,21.0,-0.0,40,29.94,10.0,Variable,6.9,17.3,N/A,,Clear,0,2014-01-26 15:54:00
11:54 AM,21.9,-0.0,38,29.91,10.0,WSW,10.4,17.3,N/A,,Clear,240,2014-01-26 16:54:00
12:54 PM,23.0,-0.9,35,29.88,10.0,West,12.7,18.4,N/A,,Clear,270,2014-01-26 17:54:00
1:54 PM,25.0,3.0,39,29.88,10.0,WSW,5.8,-,N/A,,Overcast,240,2014-01-26 18:54:00
2:54 PM,25.0,3.0,39,29.89,10.0,SW,8.1,-,N/A,,Overcast,230,2014-01-26 19:54:00
3:54 PM,24.1,12.0,60,29.87,2.5,SSW,6.9,-,0.00,Snow,Light Snow,200,2014-01-26 20:54:00
4:05 PM,24.1,14.0,65,29.88,4.0,SSW,5.8,-,0.00,Snow,Light Snow,210,2014-01-26 21:05:00
4:20 PM,23.0,14.0,68,29.87,10.0,SSW,6.9,-,0.00,,Mostly Cloudy,200,2014-01-26 21:20:00
4:28 PM,23.0,15.1,72,29.85,10.0,Variable,3.5,-,0.00,,Mostly Cloudy,0,2014-01-26 21:28:00
4:54 PM,23.0,15.1,72,29.87,10.0,SW,4.6,-,0.00,,Mostly Cloudy,230,2014-01-26 21:54:00
5:54 PM,24.1,15.1,69,29.88,10.0,Calm,Calm,-,N/A,,Overcast,0,2014-01-26 22:54:00
6:54 PM,23.0,14.0,68,29.85,10.0,ESE,3.5,-,N/A,,Overcast,120,2014-01-26 23:54:00
7:54 PM,25.0,12.9,60,29.83,10.0,Calm,Calm,-,N/A,,Overcast,0,2014-01-27 00:54:00
8:54 PM,28.0,15.1,58,29.84,10.0,Calm,Calm,-,N/A,,Overcast,0,2014-01-27 01:54:00
9:54 PM,27.0,16.0,63,29.83,10.0,Calm,Calm,-,N/A,,Overcast,0,2014-01-27 02:54:00
10:54 PM,27.0,17.1,66,29.80,10.0,SSE,3.5,-,N/A,,Overcast,160,2014-01-27 03:54:00
11:54 PM,30.0,19.0,64,29.76,10.0,South,5.8,-,N/A,,Partly Cloudy,180,2014-01-27 04:54:00